Wind_Speed
17 17 17 18 18 19 18 17 17 17 17 16 15 14 14 16 19 18 14 5 6 12 7 10 11 14 16 18 21 20 18 22 29 26 20 16 14 10 15 11 8 10 7 7 7
18 18 18 18 18 19 18 18 17 16 16 16 15 13 13 15 20 18 4 6 4 6 10 13 13 13 14 17 19 20 17 29 26 23 23 21 20 15 14 16 17 14 14 14 6
20 19 19 18 18 18 18 17 17 16 15 15 14 11 11 12 16 5 5 5 6 6 9 8 12 12 18 19 21 22 24 24 25 27 28 21 19 16 21 17 17 18 15 8 10
23 20 19 19 19 18 18 18 17 15 15 14 12 9 10 10 3 9 8 7 5 6 8 7 10 14 17 20 20 25 24 22 26 25 15 18 19 19 22 15 14 13 15 13 14
23 22 21 22 20 19 18 17 17 15 13 12 8 6 7 10 8 12 9 7 5 7 10 8 9 12 17 16 18 22 22 21 16 20 17 14 19 22 23 12 10 11 17 19 15
24 24 24 23 22 19 18 17 16 15 13 10 5 4 10 14 5 9 10 9 9 8 8 8 7 7 12 11 16 12 15 22 17 17 18 19 23 23 24 20 21 14 17 18 14
24 24 24 24 22 20 18 16 15 13 10 7 4 6 12 11 3 9 10 11 7 6 9 4 7 9 6 10 12 13 15 16 19 18 19 18 25 27 23 23 22 18 18 17 20
26 26 26 25 22 19 16 12 7 7 8 5 4 8 8 2 8 9 11 9 6 8 8 6 9 13 11 11 7 15 17 17 19 23 20 19 25 21 26 25 15 18 19 12 19
27 27 26 22 21 17 8 5 5 3 4 6 5 11 8 6 12 14 12 9 7 7 8 6 11 13 10 12 14 17 15 20 18 6 10 17 19 17 11 7 13 14 11 12 14
27 26 24 21 16 10 1 1 0 7 5 6 12 7 8 11 13 6 10 7 9 8 9 10 8 12 13 14 14 14 20 18 9 13 12 16 20 18 11 14 14 15 14 15 11
27 25 22 16 9 1 2 4 6 7 11 11 3 9 2 4 5 13 12 12 11 10 14 15 13 14 17 16 13 12 16 12 7 11 5 14 19 19 18 19 17 17 16 16 15
27 22 18 7 1 1 5 5 6 6 9 8 6 10 5 3 10 11 10 11 13 13 12 10 13 17 8 7 9 14 15 15 14 10 10 16 20 21 21 18 19 19 19 17 14
25 17 9 3 4 2 4 6 7 6 7 7 3 8 10 12 10 10 14 14 13 14 11 14 12 8 7 11 13 15 15 15 13 9 11 19 23 26 27 26 24 20 19 17 15
20 13 2 4 4 1 3 7 9 5 6 12 10 7 7 9 11 11 9 15 11 15 15 11 13 5 10 12 10 14 11 10 11 11 12 3 12 7 7 11 11 10 9 10 10
16 8 0 5 11 7 8 10 7 5 5 5 7 7 7 13 5 14 10 12 15 16 9 15 14 11 15 13 10 12 10 9 14 15 16 19 11 14 17 11 12 10 5 4 6
13 5 3 5 8 5 9 6 5 7 3 6 5 8 13 14 13 6 9 13 13 14 17 18 18 13 14 14 10 11 13 15 17 16 16 20 17 14 11 11 11 10 6 6 6
13 7 6 7 9 10 8 8 7 7 4 3 6 7 13 12 15 15 16 16 14 15 17 21 23 22 18 17 17 12 13 12 15 14 15 9 5 11 2 5 2 3 5 5 7
15 10 8 9 9 9 9 9 9 3 7 3 7 13 14 14 16 15 17 14 17 21 16 18 18 19 16 17 17 16 16 13 17 13 11 14 7 3 6 9 1 6 8 7 7
14 9 11 6 8 8 8 9 11 9 5 8 12 14 16 16 9 14 14 16 18 15 12 13 17 6 13 12 14 18 15 13 16 19 15 18 21 12 13 11 8 9 3 5 7
10 9 12 2 6 9 9 13 11 0 7 10 13 11 14 14 10 15 12 4 6 7 10 15 17 16 13 14 18 17 12 6 9 16 19 17 20 14 15 17 11 4 4 5 5
8 5 6 1 5 7 9 12 8 7 8 7 12 16 18 18 17 18 16 14 5 11 9 10 14 18 12 16 19 15 17 18 16 11 6 12 9 10 7 1 3 1 5 6 8
7 5 3 4 8 5 8 6 3 11 10 12 12 15 15 15 16 17 18 10 7 11 9 7 7 13 19 17 20 18 17 18 12 20 16 16 18 13 2 6 4 5 10 13 12
6 6 4 4 5 8 12 11 10 10 11 7 10 12 14 14 16 16 12 10 4 10 7 7 5 8 14 18 19 11 16 14 18 15 19 15 15 5 6 7 11 16 19 17 12
5 4 0 2 1 7 11 13 6 3 10 7 11 15 14 16 15 9 16 0 10 12 10 6 12 17 15 20 3 5 14 12 15 11 16 20 24 22 21 19 20 20 21 19 15
3 4 3 6 7 11 12 13 12 7 4 11 7 11 10 13 15 16 12 10 10 9 8 10 18 18 21 24 20 20 22 20 19 19 20 24 27 24 23 24 25 23 17 16 14
5 5 4 12 10 10 8 9 8 8 10 12 13 13 12 14 15 17 17 15 11 13 15 10 8 15 23 22 22 25 22 21 22 23 24 27 28 25 26 20 20 20 17 17 16
8 5 5 9 8 9 6 8 11 13 8 6 8 11 13 13 14 14 14 14 13 13 12 10 6 8 13 12 19 20 20 20 24 23 21 23 22 22 19 21 21 19 17 17 18
Wind_Direction
341 338 335 334 330 329 327 324 323 319 316 311 308 303 303 305 307 287 250 254 209 255 240 254 238 236 229 240 234 232 245 246 244 249 246 250 214 205 250 262 256 250 279 315 323
337 334 332 331 327 326 324 322 320 318 315 310 305 301 304 313 307 272 198 264 225 196 240 233 233 222 224 224 228 228 236 243 253 255 255 249 243 177 219 237 241 252 240 261 269
334 332 330 327 325 322 321 320 319 316 313 307 302 294 303 321 280 108 132 176 183 198 265 262 267 237 237 229 225 220 241 252 245 253 265 280 256 196 199 221 256 266 265 294 299
334 331 328 326 325 321 320 318 317 312 309 303 294 295 303 289 304 103 144 158 180 238 255 243 233 230 239 238 231 231 244 249 261 267 262 256 287 276 269 236 211 257 285 286 275
333 329 325 324 322 320 317 314 312 309 303 296 288 298 312 226 255 141 168 177 210 243 258 255 258 240 243 241 235 239 245 260 253 272 269 255 255 266 267 276 248 235 263 262 255
331 327 323 322 319 316 313 310 306 301 294 287 266 287 255 256 86 157 180 189 236 237 249 251 268 316 293 274 258 229 257 253 240 249 246 253 252 255 251 253 256 252 249 253 242
329 326 323 321 318 315 311 308 302 295 281 262 238 272 267 261 203 180 189 213 223 257 256 250 293 257 290 257 246 266 262 258 256 247 246 252 256 251 256 253 248 241 250 247 258
329 328 325 321 317 313 310 315 323 293 247 233 230 258 265 177 204 197 199 222 228 227 257 274 259 267 271 278 251 246 244 254 243 225 230 233 256 256 244 237 236 251 246 259 267
331 329 328 323 317 311 321 51 33 6 179 182 226 226 249 152 205 203 207 229 197 216 227 256 251 246 222 244 241 223 252 232 243 160 244 213 251 260 191 224 239 250 244 247 262
333 331 328 323 317 317 121 164 94 95 126 209 261 248 237 204 184 189 209 239 236 228 229 221 233 234 224 234 242 251 219 242 251 172 209 248 247 257 195 222 244 244 244 254 230
334 333 331 327 320 331 328 227 206 197 204 275 328 269 280 215 197 210 197 211 231 236 249 197 234 234 244 232 267 318 289 289 251 233 242 268 270 265 253 242 241 246 245 240 246
336 336 335 332 41 102 260 307 24 334 293 197 248 260 265 259 207 217 201 226 208 244 218 255 237 256 283 292 261 262 263 256 260 258 261 273 269 268 263 257 254 252 246 243 238
343 343 344 115 119 245 312 19 323 312 258 158 204 212 198 213 232 216 203 230 250 243 234 258 302 34 273 234 243 247 259 267 280 292 286 265 261 256 246 244 244 244 248 246 246
349 353 58 150 270 350 212 334 321 308 272 145 192 180 187 217 235 233 225 234 238 252 258 250 265 186 232 244 249 267 269 245 274 266 266 239 283 255 207 213 209 221 223 232 232
349 358 214 288 319 267 338 317 316 251 273 126 144 110 208 214 79 186 220 240 254 270 230 257 226 217 248 249 263 276 303 267 269 268 276 261 253 266 244 218 187 191 197 224 222
334 328 276 255 257 326 315 305 255 237 248 164 189 213 202 217 243 218 198 228 273 276 266 263 274 258 251 285 285 287 271 259 254 252 253 253 246 247 231 197 183 145 205 224 228
321 285 269 299 318 326 307 246 249 256 79 187 241 210 257 263 221 229 237 228 240 249 249 247 242 234 246 255 256 233 256 261 248 220 242 219 228 258 349 99 79 263 290 256 245
324 268 274 272 302 312 280 244 259 277 302 68 293 278 265 269 254 244 253 253 260 257 264 275 272 242 231 220 248 243 257 263 285 283 284 160 227 241 243 134 171 259 269 260 241
324 253 256 233 297 293 266 249 263 349 14 314 306 269 263 248 235 288 265 267 281 298 264 282 277 34 263 264 242 254 246 269 287 282 284 282 294 265 171 193 210 239 241 270 235
328 269 255 167 289 269 254 264 295 340 302 298 283 300 292 302 261 224 253 283 293 274 286 290 291 278 230 237 243 253 257 250 244 254 254 251 250 260 169 181 183 219 266 272 264
292 267 104 300 275 246 252 286 333 322 314 287 292 295 296 298 291 284 288 283 247 275 281 278 281 275 257 228 237 223 237 243 259 204 267 278 267 80 107 359 40 204 268 297 295
289 287 79 322 262 215 264 7 20 285 277 267 274 283 288 294 291 291 289 289 359 304 281 288 286 276 265 257 246 248 217 244 263 238 256 268 264 292 89 317 88 308 248 260 287
304 291 132 288 290 328 319 301 284 276 291 287 277 286 295 292 292 290 296 346 236 284 15 315 250 282 273 251 222 243 246 250 231 265 264 256 255 210 165 219 265 280 288 287 271
296 310 181 230 191 310 325 297 295 289 294 290 294 295 288 282 283 276 280 67 305 294 75 306 281 271 276 297 154 292 303 280 291 239 258 250 269 272 288 297 286 284 281 282 279
314 18 18 309 325 328 298 294 292 309 292 306 286 290 299 290 298 299 305 262 248 255 259 249 263 272 279 288 277 247 252 244 232 235 245 264 266 274 280 280 280 277 298 311 307
323 343 335 287 275 296 283 293 307 316 316 295 303 311 318 300 302 303 305 295 288 287 240 250 269 276 271 279 282 277 263 267 266 270 272 273 275 278 274 305 301 304 312 315 309
354 271 274 294 274 289 312 324 309 311 301 275 309 305 300 311 318 306 299 290 285 284 289 271 268 294 279 272 263 263 259 256 255 254 258 267 290 306 298 306 318 318 319 304 291
Height
820 817 814 811 809 806 803 801 798 795 792 790 788 786 784 782 778 776 772 764 766 766 766 764 762 758 757 751 746 741 754 747 738 733 726 711 721 729 731 732 729 726 729 727 733
819 815 812 809 806 804 801 799 796 793 791 788 785 783 782 779 776 766 762 763 764 765 764 758 753 752 750 746 742 743 747 740 724 716 716 708 713 721 739 739 735 730 727 727 730
817 813 810 807 804 801 798 796 794 792 789 787 783 782 780 778 770 753 760 762 763 763 761 757 752 747 748 738 736 737 741 726 719 714 708 710 707 711 728 743 736 733 725 722 730
816 812 808 804 800 798 796 793 791 789 787 785 782 781 779 780 760 756 761 762 763 763 759 753 750 749 748 743 732 738 727 724 721 710 713 719 716 718 716 717 726 732 733 731 731
815 810 806 801 798 795 792 790 788 786 784 782 781 780 779 768 754 757 761 762 763 761 755 749 747 744 743 734 729 733 727 722 719 720 719 719 729 727 722 717 720 732 734 730 728
812 808 803 799 795 791 788 786 784 782 781 780 780 780 779 765 755 758 761 762 759 757 750 749 743 741 742 733 735 727 729 728 721 728 725 731 729 727 721 719 720 721 728 724 721
810 805 800 796 792 788 785 782 779 778 778 778 779 780 772 756 755 757 758 758 756 756 751 749 748 748 737 742 731 736 743 734 727 726 728 727 731 725 716 713 714 715 717 720 720
806 802 798 793 789 785 781 778 777 775 776 777 778 779 761 753 755 756 756 755 756 755 754 753 752 747 742 733 742 745 739 741 716 716 720 729 732 712 701 705 712 718 715 715 716
802 798 794 789 785 782 778 777 776 774 775 777 778 775 751 755 756 753 753 751 751 753 753 754 751 746 739 748 744 735 740 727 716 709 722 725 729 706 701 713 718 717 716 718 717
799 794 790 785 782 779 778 777 776 775 776 779 774 771 752 748 748 751 752 753 751 749 750 751 748 747 742 739 743 725 724 721 719 715 725 725 721 711 705 713 715 715 714 715 719
796 790 786 782 780 779 779 778 776 772 770 756 752 752 748 749 752 752 750 751 749 748 751 740 747 744 730 723 723 730 726 721 713 710 727 729 721 710 702 703 708 709 709 712 714
793 788 784 780 780 779 777 766 771 770 761 747 750 751 751 749 748 745 747 749 746 749 736 744 745 729 721 729 739 738 736 731 720 715 727 728 724 712 705 702 701 703 703 705 707
791 786 783 781 779 778 773 773 772 770 761 743 743 744 745 748 744 739 743 742 742 742 739 742 725 727 734 738 743 737 735 729 728 722 724 729 724 709 695 694 693 693 694 696 699
790 786 783 782 782 773 769 773 771 771 757 744 742 739 742 742 744 736 736 739 738 740 732 731 721 735 739 739 732 738 720 726 736 741 738 712 729 696 691 696 693 693 695 696 699
790 787 784 782 778 769 774 772 771 770 757 738 736 734 732 739 734 736 736 735 742 735 736 735 726 736 739 731 725 734 722 734 734 735 732 722 723 700 682 686 690 693 696 697 699
791 787 785 782 778 775 773 771 770 768 756 738 732 737 737 735 733 729 735 735 732 735 729 727 720 722 725 722 724 726 730 733 729 727 733 711 710 694 680 683 685 691 694 695 696
790 787 784 782 774 775 773 768 765 756 734 735 736 732 732 729 726 728 731 734 740 741 737 722 721 718 720 734 724 729 737 738 728 721 714 687 701 689 682 683 687 692 693 693 693
787 784 783 781 777 775 772 765 769 734 735 728 740 734 736 727 723 722 726 731 721 724 728 734 733 715 713 725 732 728 729 729 733 713 698 689 706 684 676 677 690 692 693 693 694
783 781 779 775 776 775 768 760 745 737 743 744 738 737 730 720 727 731 726 727 718 718 740 738 727 719 718 717 722 725 730 717 730 715 716 698 685 676 678 687 691 690 693 694 693
783 775 770 772 774 772 763 758 741 741 746 745 750 735 735 722 722 723 722 718 728 724 726 730 738 716 718 718 719 722 717 746 731 742 736 704 689 677 673 680 683 691 692 691 691
783 767 769 771 772 764 759 740 739 739 746 751 746 742 735 733 727 724 724 719 724 727 724 732 737 728 715 722 726 719 726 721 720 735 738 714 695 669 689 678 682 689 692 692 694
780 766 769 769 765 748 748 747 760 748 743 745 746 744 742 737 735 730 729 726 741 730 733 731 740 734 719 703 700 703 710 722 726 727 710 703 689 658 684 678 681 689 690 687 686
778 766 766 767 760 748 744 746 745 749 747 743 742 739 737 741 743 734 730 733 735 736 736 740 746 751 726 709 697 705 701 702 708 713 715 723 700 668 678 679 677 680 679 677 679
781 766 756 757 759 767 757 752 750 744 749 747 747 742 742 739 730 735 739 742 741 739 746 750 744 744 738 719 752 753 739 717 717 726 720 706 692 682 676 679 676 672 670 670 671
779 774 781 767 759 765 762 756 753 749 747 747 746 740 742 745 740 735 730 732 734 739 741 744 748 742 733 718 715 717 716 709 708 710 717 700 691 685 677 674 671 666 663 666 668
792 789 777 771 766 767 763 752 754 752 757 753 752 747 747 750 746 744 738 734 737 733 735 738 753 745 739 722 713 705 697 693 690 689 689 685 680 668 660 659 667 665 668 673 673
800 795 791 774 760 761 753 757 759 759 755 752 754 753 751 748 745 743 741 740 741 743 745 745 752 746 736 722 723 708 686 682 677 673 675 677 669 666 666 659 662 667 670 674 675